Weather in Krasnyy Ugol

Russia / Ryazan Oblast     54°02′04″N   40°52′59″E
temp.,
°C
wind,
m/s
gust,
m/s
humid.,
%
clouds,
%
prec.,
mm/h
press.,
hPa
HPBL,
m
25 february, thu
thu2500:00−17s4994100 0.4 1033380
03:00−15ssw51094100 0.6 1030404
06:00−13ssw51094100 1.1 1025414
09:00−10ssw71294100 3.4 1021429
12:00−2sw71496100 2.1 1016583
15:00+2w614100100 3.6 1013508
18:00+2wnw51399100 0.1 1013435
21:00+1wnw41098100 0.1 1013415
26 february, fri
fri2600:00+1nw3898100 0.0 1013330
03:00+1w2699100 0.1 1014184
06:00+1w4999100 0.4 1012280
09:00+2wsw41099100 0.9 1011279
12:00+2wsw41399100 0.3 1009483
15:00+2wsw51398100 0.8 1007523
18:00+3w61698100 0.5 1004648
21:00+2w61495100 0.5 1005770
27 february, sat
sat2700:00+2w61394100 0.1 1003826
03:00+1w61487100 0.1 1003623
06:00−1w5139177 0.0 1002607
09:00+1w6129386 0.0 1001723
12:00+1w61198100 0.1 1000750
15:00+1w5119799 0.2 1000765
18:00−5n61195100 0.8 1001535
21:00−9nnw61190100 1.2 1005669
28 february, sun
sun2800:00−10nnw61190100 0.1 1008702
03:00−12nnw61190100 0.3 1011591
06:00−14nnw51091100 0.1 1013511
09:00−14nnw5991100 0.1 1015441
12:00−11nnw488698 0.0 1016534
15:00−9nnw588699 0.0 1017624
18:00−10nnw3993100 0.1 1018509
21:00−12n399496 0.1 1021318
1 march, mon
mon100:00−14nnw369615 0.0 1023172
03:00−14nnw369623 0.0 1024168
06:00−15nnw269651 0.0 1025145
09:00−13nnw259342 0.0 1027228
12:00−8nw259084 0.0 1028342
15:00−5nw359092 0.1 1027448
18:00−5w379295 0.1 1026299
21:00−7wsw389582 0.1 1026169